,,Stat6,,Stat2,,Stat8,,Stat9,,Stat10,,Wind1,,Wind1,
time,status,PA1M_AVG,status,PR1M_SUM,status,RH1M_AVG,status,SR1M_AVG,status,TA1M_AVG,status,W1dAve1m,status,W1sAve1m,
2006-05-19, 00:00:01,VALID,917.349,VALID,0,VALID,98.173,VALID,-0.101885,VALID,19.0408,VALID,110,VALID,1.05918,
2006-05-19, 00:01:00,VALID,917.34,VALID,0,VALID,98.0089,VALID,-0.0849042,VALID,19.393,VALID,105,VALID,0.995028,
2006-05-19, 00:02:00,VALID,917.332,VALID,0,VALID,97.8029,VALID,-0.118866,VALID,19.0828,VALID,101,VALID,0.780401,
2006-05-19, 00:03:01,VALID,917.328,VALID,0,VALID,97.5168,VALID,-0.220751,VALID,18.6848,VALID,103,VALID,0.72237,
2006-05-19, 00:04:00,VALID,917.319,VALID,0,VALID,97.4469,VALID,-0.169808,VALID,18.9472,VALID,104,VALID,0.46076,
2006-05-19, 00:05:01,VALID,917.316,VALID,0,VALID,97.4354,VALID,-0.101885,VALID,18.6523,VALID,104,VALID,0.0970204,
2006-05-19, 00:06:00,VALID,917.324,VALID,0,VALID,97.4151,VALID,-0.101885,VALID,17.8897,VALID,104,VALID,0,
2006-05-19, 00:07:00,VALID,917.324,VALID,0,VALID,97.4609,VALID,-0.101885,VALID,19.3043,VALID,104,VALID,0,
2006-05-19, 00:08:00,VALID,917.322,VALID,0,VALID,97.4837,VALID,-0.118866,VALID,19.654,VALID,104,VALID,0,
2006-05-19, 00:09:00,VALID,917.33,VALID,0,VALID,97.5448,VALID,-0.20377,VALID,19.6854,VALID,104,VALID,0,
2006-05-19, 00:10:00,VALID,917.332,VALID,0,VALID,97.6185,VALID,-0.20377,VALID,18.1889,VALID,104,VALID,0,
2006-05-19, 00:11:01,VALID,917.333,VALID,0,VALID,97.6859,VALID,-0.169808,VALID,19.1474,VALID,104,VALID,0,
2006-05-19, 00:12:00,VALID,917.329,VALID,0,VALID,97.6351,VALID,-0.169808,VALID,19.0717,VALID,104,VALID,0,
2006-05-19, 00:13:00,VALID,917.336,VALID,0,VALID,97.6007,VALID,-0.118866,VALID,19.3034,VALID,104,VALID,0,
2006-05-19, 00:14:00,VALID,917.339,VALID,0,VALID,97.7355,VALID,-0.135847,VALID,18.573,VALID,104,VALID,0,
2006-05-19, 00:15:00,VALID,917.358,VALID,0,VALID,97.8055,VALID,-0.135847,VALID,18.578,VALID,104,VALID,0,
2006-05-19, 00:16:01,VALID,917.373,VALID,0,VALID,97.6402,VALID,-0.135847,VALID,18.9487,VALID,104,VALID,0,
2006-05-19, 00:17:00,VALID,917.382,VALID,0,VALID,97.3731,VALID,-0.135847,VALID,18.1663,VALID,104,VALID,0.0012718,
2006-05-19, 00:18:00,VALID,917.386,VALID,0,VALID,97.5372,VALID,-0.101885,VALID,18.1812,VALID,104,VALID,0,
2006-05-19, 00:19:01,VALID,917.377,VALID,0,VALID,97.499,VALID,-0.118866,VALID,18.8319,VALID,104,VALID,0,
2006-05-19, 00:20:01,VALID,917.372,VALID,0,VALID,97.719,VALID,-0.152827,VALID,18.5651,VALID,104,VALID,0.0641741,
2006-05-19, 00:21:00,VALID,917.353,VALID,0,VALID,97.9542,VALID,-0.169808,VALID,18.6464,VALID,104,VALID,0.256284,
2006-05-19, 00:22:00,VALID,917.341,VALID,0,VALID,98.2861,VALID,-0.152827,VALID,19.596,VALID,104,VALID,0.251359,
2006-05-19, 00:23:00,VALID,917.328,VALID,0,VALID,98.763,VALID,-0.118866,VALID,17.9531,VALID,104,VALID,0.40816,
2006-05-19, 00:24:01,VALID,917.321,VALID,0,VALID,98.9741,VALID,-0.101885,VALID,18.6592,VALID,111,VALID,0.731898,
2006-05-19, 00:25:00,VALID,917.313,VALID,0,VALID,99.2551,VALID,-0.101885,VALID,19.1055,VALID,116,VALID,0.701219,
2006-05-19, 00:26:00,VALID,917.321,VALID,0,VALID,99.6429,VALID,-0.101885,VALID,19.0835,VALID,116,VALID,0.797585,
2006-05-19, 00:27:00,VALID,917.308,VALID,0,VALID,99.9802,VALID,-0.101885,VALID,18.3166,VALID,116,VALID,0.862165,
2006-05-19, 00:28:00,VALID,917.295,VALID,0,VALID,100,VALID,-0.101885,VALID,18.5192,VALID,116,VALID,0.86319,
2006-05-19, 00:29:00,VALID,917.291,VALID,0,VALID,100,VALID,-0.0849042,VALID,18.53,VALID,106,VALID,0.959635,
2006-05-19, 00:30:00,VALID,917.277,VALID,0,VALID,100,VALID,-0.101885,VALID,18.3636,VALID,102,VALID,0.974657,
2006-05-19, 00:31:00,VALID,917.27,VALID,0,VALID,100,VALID,-0.101885,VALID,18.2665,VALID,102,VALID,0.851199,
2006-05-19, 00:32:01,VALID,917.268,VALID,0,VALID,100,VALID,-0.118866,VALID,18.2966,VALID,103,VALID,0.803686,
2006-05-19, 00:33:01,VALID,917.273,VALID,0,VALID,100,VALID,-0.101885,VALID,18.9041,VALID,107,VALID,0.989524,
2006-05-19, 00:34:00,VALID,917.288,VALID,0,VALID,100,VALID,-0.152827,VALID,18.1531,VALID,111,VALID,1.10245,
2006-05-19, 00:35:01,VALID,917.301,VALID,0,VALID,100,VALID,-0.0849042,VALID,18.8025,VALID,107,VALID,1.0467,
2006-05-19, 00:36:00,VALID,917.317,VALID,0,VALID,100,VALID,-0.118866,VALID,18.6188,VALID,107,VALID,0.959766,
2006-05-19, 00:37:00,VALID,917.316,VALID,0,VALID,100,VALID,-0.101885,VALID,18.1705,VALID,107,VALID,0.875888,
2006-05-19, 00:38:01,VALID,917.317,VALID,0,VALID,100,VALID,-0.20377,VALID,18.8675,VALID,105,VALID,1.06302,
2006-05-19, 00:39:00,VALID,917.311,VALID,0,VALID,100,VALID,-0.186789,VALID,19.2794,VALID,107,VALID,0.902253,
2006-05-19, 00:40:00,VALID,917.307,VALID,0,VALID,99.9977,VALID,-0.118866,VALID,17.6389,VALID,107,VALID,0.641959,
2006-05-19, 00:41:00,VALID,917.289,VALID,0,VALID,99.8693,VALID,-0.186789,VALID,17.9619,VALID,105,VALID,0.749256,
2006-05-19, 00:42:00,VALID,917.283,VALID,0,VALID,99.6925,VALID,-0.20377,VALID,18.2483,VALID,106,VALID,0.842748,
2006-05-19, 00:43:01,VALID,917.277,VALID,0,VALID,99.3009,VALID,-0.186789,VALID,18.8177,VALID,118,VALID,0.721657,
2006-05-19, 00:44:00,VALID,917.279,VALID,0,VALID,99.1063,VALID,-0.0849042,VALID,18.2771,VALID,141,VALID,1.06686,
2006-05-19, 00:45:00,VALID,917.265,VALID,0,VALID,99.7281,VALID,-0.101885,VALID,18.7816,VALID,139,VALID,1.10742,
2006-05-19, 00:46:01,VALID,917.27,VALID,0,VALID,99.8871,VALID,-0.101885,VALID,18.186,VALID,138,VALID,0.99638,
2006-05-19, 00:47:01,VALID,917.289,VALID,0,VALID,99.971,VALID,-0.101885,VALID,17.9443,VALID,139,VALID,1.18986,
2006-05-19, 00:48:00,VALID,917.28,VALID,0,VALID,100,VALID,-0.118866,VALID,18.7082,VALID,132,VALID,1.24123,
2006-05-19, 00:49:00,VALID,917.279,VALID,0,VALID,100,VALID,-0.20377,VALID,18.8019,VALID,130,VALID,1.09666,
2006-05-19, 00:50:00,VALID,917.28,VALID,0,VALID,100,VALID,-0.186789,VALID,18.2914,VALID,125,VALID,1.01817,
2006-05-19, 00:51:01,VALID,917.267,VALID,0,VALID,100,VALID,-0.20377,VALID,18.2958,VALID,125,VALID,0.924851,
2006-05-19, 00:52:00,VALID,917.266,VALID,0,VALID,100,VALID,-0.220751,VALID,18.1037,VALID,125,VALID,0.988867,
2006-05-19, 00:53:00,VALID,917.269,VALID,0,VALID,100,VALID,-0.20377,VALID,17.8544,VALID,116,VALID,0.829799,
2006-05-19, 00:54:00,VALID,917.267,VALID,0,VALID,100,VALID,-0.20377,VALID,18.0718,VALID,100,VALID,1.00799,
2006-05-19, 00:55:01,VALID,917.263,VALID,0,VALID,100,VALID,-0.101885,VALID,19.3512,VALID,104,VALID,1.09415,
2006-05-19, 00:56:00,VALID,917.246,VALID,0,VALID,100,VALID,-0.101885,VALID,18.5404,VALID,101,VALID,1.01658,
2006-05-19, 00:57:00,VALID,917.225,VALID,0,VALID,100,VALID,-0.101885,VALID,18.5377,VALID,113,VALID,1.43889,
2006-05-19, 00:58:01,VALID,917.178,VALID,0,VALID,100,VALID,-0.118866,VALID,18.2418,VALID,119,VALID,1.35379,
2006-05-19, 00:59:00,VALID,917.167,VALID,0,VALID,100,VALID,-0.101885,VALID,18.3617,VALID,124,VALID,1.13837,
2006-05-19, 01:00:00,VALID,917.133,VALID,0,VALID,100,VALID,-0.101885,VALID,18.6656,VALID,129,VALID,1.28563,
2006-05-19, 01:01:00,VALID,917.133,VALID,0,VALID,99.7358,VALID,-0.101885,VALID,19.331,VALID,139,VALID,1.19097,
2006-05-19, 01:02:00,VALID,917.131,VALID,0,VALID,99.5348,VALID,-0.0849042,VALID,18.9928,VALID,139,VALID,1.41974,
2006-05-19, 01:03:00,VALID,917.134,VALID,0,VALID,99.5552,VALID,-0.118866,VALID,18.9069,VALID,133,VALID,1.34792,
2006-05-19, 01:04:00,VALID,917.144,VALID,0,VALID,99.615,VALID,-0.0849042,VALID,18.3803,VALID,133,VALID,1.40449,
2006-05-19, 01:05:01,VALID,917.156,VALID,0,VALID,99.4179,VALID,-0.0849042,VALID,19.0979,VALID,136,VALID,1.26762,
2006-05-19, 01:06:00,VALID,917.164,VALID,0,VALID,99.5768,VALID,-0.101885,VALID,18.399,VALID,126,VALID,1.32703,
2006-05-19, 01:07:01,VALID,917.176,VALID,0,VALID,99.5997,VALID,-0.118866,VALID,18.4956,VALID,120,VALID,1.14281,
2006-05-19, 01:08:00,VALID,917.171,VALID,0,VALID,99.7383,VALID,-0.101885,VALID,18.1191,VALID,127,VALID,1.28016,
2006-05-19, 01:09:01,VALID,917.182,VALID,0,VALID,99.9374,VALID,-0.118866,VALID,18.1162,VALID,123,VALID,1.42552,
2006-05-19, 01:10:01,VALID,917.183,VALID,0,VALID,100,VALID,-0.101885,VALID,18.6697,VALID,124,VALID,1.32565,
2006-05-19, 01:11:00,VALID,917.179,VALID,0,VALID,100,VALID,-0.101885,VALID,18.394,VALID,121,VALID,1.27227,
2006-05-19, 01:12:00,VALID,917.172,VALID,0,VALID,100,VALID,-0.101885,VALID,17.4824,VALID,117,VALID,0.9375,
2006-05-19, 01:13:00,VALID,917.157,VALID,0,VALID,100,VALID,-0.118866,VALID,18.7376,VALID,117,VALID,0.74966,
2006-05-19, 01:14:01,VALID,917.153,VALID,0,VALID,100,VALID,-4.62593e-018,VALID,18.4621,VALID,117,VALID,1.10283,
2006-05-19, 01:15:01,VALID,917.147,VALID,0,VALID,100,VALID,0.0679233,VALID,18.0288,VALID,116,VALID,1.33361,
2006-05-19, 01:16:01,VALID,917.131,VALID,0,VALID,100,VALID,-0.101885,VALID,19.3009,VALID,116,VALID,1.19844,
2006-05-19, 01:17:00,VALID,917.14,VALID,0,VALID,100,VALID,-0.0849042,VALID,18.8375,VALID,125,VALID,1.31995,
2006-05-19, 01:18:00,VALID,917.141,VALID,0,VALID,99.9715,VALID,-0.101885,VALID,18.2009,VALID,127,VALID,1.30171,
2006-05-19, 01:19:00,VALID,917.132,VALID,0,VALID,99.9374,VALID,-0.101885,VALID,18.0588,VALID,125,VALID,1.51634,
2006-05-19, 01:20:00,VALID,917.117,VALID,0,VALID,100,VALID,-0.0849042,VALID,19.5059,VALID,125,VALID,1.54192,
2006-05-19, 01:21:00,VALID,917.129,VALID,0,VALID,99.8871,VALID,-0.118866,VALID,18.798,VALID,131,VALID,1.30371,
2006-05-19, 01:22:00,VALID,917.106,VALID,0,VALID,99.7408,VALID,-0.101885,VALID,18.1832,VALID,139,VALID,1.1936,
2006-05-19, 01:23:00,VALID,917.116,VALID,0,VALID,99.8629,VALID,-0.152827,VALID,18.1721,VALID,135,VALID,1.02453,
2006-05-19, 01:24:00,VALID,917.111,VALID,0,VALID,99.9252,VALID,-0.101885,VALID,19.0697,VALID,135,VALID,1.18102,
2006-05-19, 01:25:00,VALID,917.101,VALID,0,VALID,99.8578,VALID,-0.118866,VALID,18.383,VALID,128,VALID,0.914063,
2006-05-19, 01:26:01,VALID,917.1,VALID,0,VALID,99.9819,VALID,-0.101885,VALID,17.5835,VALID,125,VALID,1.34896,
2006-05-19, 01:27:01,VALID,917.1,VALID,0,VALID,100,VALID,-0.118866,VALID,18.3211,VALID,119,VALID,1.37464,
2006-05-19, 01:28:00,VALID,917.091,VALID,0,VALID,100,VALID,-0.101885,VALID,18.3677,VALID,114,VALID,1.42305,
2006-05-19, 01:29:00,VALID,917.08,VALID,0,VALID,100,VALID,-0.152827,VALID,17.9783,VALID,103,VALID,1.20064,
2006-05-19, 01:30:00,VALID,917.068,VALID,0,VALID,100,VALID,-0.101885,VALID,17.9223,VALID,102,VALID,1.09712,
2006-05-19, 01:31:00,VALID,917.049,VALID,0,VALID,100,VALID,-0.101885,VALID,18.755,VALID,108,VALID,1.54597,
2006-05-19, 01:32:00,VALID,917.024,VALID,0,VALID,100,VALID,-0.101885,VALID,18.251,VALID,107,VALID,1.52418,
2006-05-19, 01:33:00,VALID,917.016,VALID,0,VALID,100,VALID,-0.118866,VALID,18.127,VALID,99,VALID,1.3709,
2006-05-19, 01:34:01,VALID,917.006,VALID,0,VALID,100,VALID,-0.118866,VALID,18.2011,VALID,93,VALID,1.47123,
2006-05-19, 01:35:00,VALID,917.003,VALID,0,VALID,100,VALID,-0.118866,VALID,17.6318,VALID,101,VALID,1.39063,
2006-05-19, 01:36:00,VALID,916.99,VALID,0,VALID,100,VALID,-0.135847,VALID,19.2593,VALID,102,VALID,1.20503,
2006-05-19, 01:37:01,VALID,916.971,VALID,0,VALID,100,VALID,-0.101885,VALID,19.1409,VALID,117,VALID,1.49033,
2006-05-19, 01:38:00,VALID,916.957,VALID,0,VALID,100,VALID,-0.118866,VALID,19.0203,VALID,122,VALID,1.45762,
2006-05-19, 01:39:00,VALID,916.931,VALID,0,VALID,100,VALID,-0.118866,VALID,18.3011,VALID,119,VALID,1.4668,
2006-05-19, 01:40:00,VALID,916.916,VALID,0,VALID,100,VALID,-0.135847,VALID,18.4589,VALID,105,VALID,1.45367,
2006-05-19, 01:41:00,VALID,916.877,VALID,0,VALID,100,VALID,-0.118866,VALID,18.1389,VALID,105,VALID,1.49461,
2006-05-19, 01:42:00,VALID,916.869,VALID,0,VALID,100,VALID,-0.118866,VALID,17.4867,VALID,111,VALID,1.40365,
2006-05-19, 01:43:01,VALID,916.843,VALID,0,VALID,100,VALID,-0.101885,VALID,18.1787,VALID,106,VALID,1.19368,
2006-05-19, 01:44:01,VALID,916.825,VALID,0,VALID,100,VALID,-0.268552,VALID,18.3783,VALID,98,VALID,1.08913,
2006-05-19, 01:45:00,VALID,916.812,VALID,0,VALID,100,VALID,-0.850314,VALID,18.3618,VALID,104,VALID,1.18999,
2006-05-19, 01:46:01,VALID,916.824,VALID,0,VALID,100,VALID,-0.135847,VALID,18.8233,VALID,108,VALID,1.29353,
2006-05-19, 01:47:01,VALID,916.819,VALID,0,VALID,100,VALID,-0.101885,VALID,18.2407,VALID,110,VALID,1.3041,
2006-05-19, 01:48:01,VALID,916.835,VALID,0,VALID,100,VALID,-0.118866,VALID,18.0422,VALID,108,VALID,1.57775,
2006-05-19, 01:49:01,VALID,916.831,VALID,0,VALID,100,VALID,-0.101885,VALID,18.1851,VALID,105,VALID,1.52453,
2006-05-19, 01:50:00,VALID,916.816,VALID,0,VALID,100,VALID,-0.135847,VALID,19.0939,VALID,110,VALID,1.32158,
2006-05-19, 01:51:00,VALID,916.803,VALID,0,VALID,100,VALID,-0.118866,VALID,17.9582,VALID,129,VALID,1.26334,
2006-05-19, 01:52:01,VALID,916.784,VALID,0,VALID,100,VALID,-0.135847,VALID,18.2854,VALID,115,VALID,1.51635,
2006-05-19, 01:53:01,VALID,916.786,VALID,0,VALID,100,VALID,-0.118866,VALID,17.4897,VALID,111,VALID,1.1786,
2006-05-19, 01:54:01,VALID,916.777,VALID,0,VALID,100,VALID,-0.118866,VALID,18.4336,VALID,122,VALID,1.62773,
2006-05-19, 01:55:01,VALID,916.767,VALID,0,VALID,100,VALID,-0.118866,VALID,18.9804,VALID,127,VALID,1.90732,
2006-05-19, 01:56:01,VALID,916.757,VALID,0,VALID,100,VALID,-0.169808,VALID,18.1773,VALID,126,VALID,1.81996,
2006-05-19, 01:57:01,VALID,916.751,VALID,0,VALID,100,VALID,-0.135847,VALID,18.1094,VALID,129,VALID,1.63086,
2006-05-19, 01:58:00,VALID,916.725,VALID,0,VALID,100,VALID,-0.135847,VALID,18.0604,VALID,128,VALID,1.47337,
2006-05-19, 01:59:01,VALID,916.73,VALID,0,VALID,100,VALID,-0.101885,VALID,18.961,VALID,130,VALID,1.33073,
2006-05-19, 02:00:01,VALID,916.737,VALID,0,VALID,100,VALID,-0.0679233,VALID,18.329,VALID,134,VALID,1.45135,
2006-05-19, 02:01:00,VALID,916.726,VALID,0,VALID,100,VALID,-0.101885,VALID,17.9745,VALID,135,VALID,1.31704,
2006-05-19, 02:02:01,VALID,916.731,VALID,0,VALID,100,VALID,-0.101885,VALID,18.3846,VALID,131,VALID,1.09197,
2006-05-19, 02:03:01,VALID,916.744,VALID,0,VALID,100,VALID,-0.0679233,VALID,18.3613,VALID,118,VALID,1.27309,
2006-05-19, 02:04:01,VALID,916.747,VALID,0,VALID,100,VALID,-0.101885,VALID,17.9948,VALID,103,VALID,1.23838,
2006-05-19, 02:05:00,VALID,916.75,VALID,0,VALID,100,VALID,-0.101885,VALID,19.1308,VALID,109,VALID,1.16959,
2006-05-19, 02:06:01,VALID,916.758,VALID,0,VALID,100,VALID,-0.101885,VALID,17.8342,VALID,111,VALID,1.36233,
2006-05-19, 02:07:01,VALID,916.758,VALID,0,VALID,100,VALID,-0.118866,VALID,18.2134,VALID,108,VALID,1.17496,
2006-05-19, 02:08:00,VALID,916.766,VALID,0,VALID,100,VALID,-0.101885,VALID,17.6608,VALID,108,VALID,1.11133,
2006-05-19, 02:09:01,VALID,916.766,VALID,0,VALID,100,VALID,-0.101885,VALID,18.7374,VALID,111,VALID,1.11967,
2006-05-19, 02:10:00,VALID,916.776,VALID,0,VALID,100,VALID,-0.101885,VALID,17.8393,VALID,121,VALID,1.38408,
2006-05-19, 02:11:01,VALID,916.773,VALID,0,VALID,100,VALID,-0.101885,VALID,18.8119,VALID,139,VALID,1.32369,
2006-05-19, 02:12:01,VALID,916.763,VALID,0,VALID,100,VALID,-0.118866,VALID,17.8879,VALID,144,VALID,1.15206,
2006-05-19, 02:13:00,VALID,916.769,VALID,0,VALID,100,VALID,-0.186789,VALID,18.2665,VALID,135,VALID,1.11166,
2006-05-19, 02:14:01,VALID,916.759,VALID,0,VALID,100,VALID,-0.101885,VALID,18.1065,VALID,140,VALID,1.17424,
2006-05-19, 02:15:01,VALID,916.736,VALID,0,VALID,100,VALID,-0.567923,VALID,18.8971,VALID,139,VALID,1.18507,
2006-05-19, 02:16:01,VALID,916.716,VALID,0,VALID,100,VALID,-0.20377,VALID,18.8771,VALID,147,VALID,0.929492,
2006-05-19, 02:17:01,VALID,916.689,VALID,0,VALID,99.9804,VALID,-0.20377,VALID,18.1702,VALID,129,VALID,0.890807,
2006-05-19, 02:18:01,VALID,916.678,VALID,0,VALID,99.8426,VALID,-0.20377,VALID,19.0505,VALID,132,VALID,0.894817,
2006-05-19, 02:19:01,VALID,916.665,VALID,0,VALID,99.704,VALID,-0.20377,VALID,18.9917,VALID,128,VALID,0.862749,
2006-05-19, 02:20:01,VALID,916.66,VALID,0,VALID,99.648,VALID,-0.186789,VALID,18.3236,VALID,133,VALID,0.902699,
2006-05-19, 02:21:01,VALID,916.66,VALID,0,VALID,99.5654,VALID,-0.101885,VALID,18.2912,VALID,128,VALID,0.758721,
2006-05-19, 02:22:01,VALID,916.66,VALID,0,VALID,99.531,VALID,-0.101885,VALID,18.6782,VALID,129,VALID,0.879906,
2006-05-19, 02:23:01,VALID,916.649,VALID,0,VALID,99.723,VALID,-0.0849042,VALID,18.8071,VALID,119,VALID,1.1756,
2006-05-19, 02:24:01,VALID,916.649,VALID,0,VALID,99.8426,VALID,-0.118866,VALID,18.2411,VALID,91,VALID,1.04954,
2006-05-19, 02:25:01,VALID,916.648,VALID,0,VALID,99.6824,VALID,-0.101885,VALID,18.8606,VALID,115,VALID,0.951823,
2006-05-19, 02:26:01,VALID,916.642,VALID,0,VALID,99.7078,VALID,-0.101885,VALID,18.9832,VALID,119,VALID,0.974564,
2006-05-19, 02:27:01,VALID,916.625,VALID,0,VALID,99.7587,VALID,-0.101885,VALID,18.458,VALID,127,VALID,1.0904,
2006-05-19, 02:28:01,VALID,916.618,VALID,0,VALID,99.8082,VALID,-0.0849042,VALID,17.9901,VALID,126,VALID,1.12779,
2006-05-19, 02:29:01,VALID,916.622,VALID,0,VALID,99.6239,VALID,-0.101885,VALID,19.2133,VALID,123,VALID,1.25293,
2006-05-19, 02:30:01,VALID,916.623,VALID,0,VALID,99.6556,VALID,-0.118866,VALID,18.2974,VALID,123,VALID,1.01829,
2006-05-19, 02:31:01,VALID,916.621,VALID,0,VALID,99.6544,VALID,-0.169808,VALID,18.2579,VALID,125,VALID,1.29167,
2006-05-19, 02:32:01,VALID,916.631,VALID,0,VALID,99.7472,VALID,-0.152827,VALID,18.6994,VALID,127,VALID,1.61523,
2006-05-19, 02:33:01,VALID,916.627,VALID,0,VALID,99.8438,VALID,-0.135847,VALID,18.7345,VALID,120,VALID,1.25934,
2006-05-19, 02:34:01,VALID,916.617,VALID,0,VALID,99.8032,VALID,-0.169808,VALID,18.3817,VALID,127,VALID,1.3016,
2006-05-19, 02:35:00,VALID,916.601,VALID,0,VALID,99.7714,VALID,-0.118866,VALID,17.9418,VALID,121,VALID,1.26545,
2006-05-19, 02:36:00,VALID,916.593,VALID,0,VALID,99.6429,VALID,-0.118866,VALID,18.1156,VALID,117,VALID,1.32493,
2006-05-19, 02:37:00,VALID,916.584,VALID,0,VALID,99.7523,VALID,-0.118866,VALID,18.3947,VALID,113,VALID,1.29052,
2006-05-19, 02:38:00,VALID,916.556,VALID,0,VALID,99.8133,VALID,-0.135847,VALID,18.5176,VALID,119,VALID,1.86566,
2006-05-19, 02:39:00,VALID,916.536,VALID,0,VALID,99.8299,VALID,-0.135847,VALID,18.5761,VALID,113,VALID,1.63053,
2006-05-19, 02:40:00,VALID,916.518,VALID,0,VALID,99.854,VALID,-0.118866,VALID,18.5252,VALID,113,VALID,1.65749,
2006-05-19, 02:41:00,VALID,916.505,VALID,0,VALID,99.9168,VALID,-0.118866,VALID,18.4461,VALID,121,VALID,1.80684,
2006-05-19, 02:42:00,VALID,916.487,VALID,0,VALID,99.9964,VALID,-0.118866,VALID,18.8479,VALID,121,VALID,1.95217,
2006-05-19, 02:43:00,VALID,916.484,VALID,0,VALID,100,VALID,-0.220751,VALID,17.7893,VALID,120,VALID,1.90874,
2006-05-19, 02:44:00,VALID,916.496,VALID,0,VALID,100,VALID,-0.135847,VALID,18.3467,VALID,120,VALID,1.82292,
2006-05-19, 02:45:00,VALID,916.487,VALID,0,VALID,99.9583,VALID,-0.152827,VALID,18.961,VALID,124,VALID,1.64684,
2006-05-19, 02:46:00,VALID,916.47,VALID,0,VALID,99.9814,VALID,-0.118866,VALID,18.775,VALID,125,VALID,1.7526,
2006-05-19, 02:47:00,VALID,916.459,VALID,0,VALID,99.9769,VALID,-0.135847,VALID,18.1955,VALID,121,VALID,1.56715,
2006-05-19, 02:48:00,VALID,916.427,VALID,0,VALID,100,VALID,-0.101885,VALID,18.0602,VALID,124,VALID,1.84593,
2006-05-19, 02:49:00,VALID,916.409,VALID,0,VALID,99.968,VALID,-0.135847,VALID,18.5392,VALID,127,VALID,1.5505,
2006-05-19, 02:50:00,VALID,916.389,VALID,0,VALID,99.9545,VALID,-0.135847,VALID,18.6169,VALID,127,VALID,1.64395,
2006-05-19, 02:51:00,VALID,916.37,VALID,0,VALID,99.9489,VALID,-0.118866,VALID,18.7932,VALID,128,VALID,1.70742,
2006-05-19, 02:52:00,VALID,916.355,VALID,0,VALID,99.7955,VALID,-0.135847,VALID,17.636,VALID,131,VALID,1.77623,
2006-05-19, 02:53:00,VALID,916.344,VALID,0,VALID,99.6773,VALID,-0.101885,VALID,17.3887,VALID,132,VALID,2.15334,
2006-05-19, 02:54:00,VALID,916.345,VALID,0,VALID,99.573,VALID,-0.101885,VALID,18.1142,VALID,131,VALID,2.01072,
2006-05-19, 02:55:00,VALID,916.335,VALID,0,VALID,99.264,VALID,-0.118866,VALID,18.1534,VALID,134,VALID,1.88906,
2006-05-19, 02:56:00,VALID,916.328,VALID,0,VALID,99.1508,VALID,-0.152827,VALID,18.1747,VALID,135,VALID,1.88073,
2006-05-19, 02:57:00,VALID,916.344,VALID,0,VALID,99.0796,VALID,-0.118866,VALID,17.7686,VALID,134,VALID,1.99148,
2006-05-19, 02:58:00,VALID,916.334,VALID,0,VALID,98.852,VALID,-0.118866,VALID,18.0131,VALID,137,VALID,1.75316,
2006-05-19, 02:59:00,VALID,916.313,VALID,0,VALID,98.7465,VALID,-0.101885,VALID,17.8611,VALID,131,VALID,1.45597,
2006-05-19, 03:00:00,VALID,916.308,VALID,0,VALID,98.8609,VALID,-0.101885,VALID,18.6655,VALID,131,VALID,1.60866,
2006-05-19, 03:01:00,VALID,916.314,VALID,0,VALID,98.8571,VALID,-0.101885,VALID,17.7455,VALID,123,VALID,1.97991,
2006-05-19, 03:02:00,VALID,916.307,VALID,0,VALID,98.8723,VALID,-0.118866,VALID,18.2563,VALID,122,VALID,1.76962,
2006-05-19, 03:03:00,VALID,916.29,VALID,0,VALID,98.7846,VALID,-0.101885,VALID,18.0645,VALID,114,VALID,1.60007,
2006-05-19, 03:04:00,VALID,916.3,VALID,0,VALID,98.7147,VALID,-0.101885,VALID,18.6069,VALID,107,VALID,1.60098,
2006-05-19, 03:05:00,VALID,916.293,VALID,0,VALID,98.6689,VALID,-0.118866,VALID,17.9848,VALID,111,VALID,1.45543,
2006-05-19, 03:06:00,VALID,916.292,VALID,0,VALID,98.5252,VALID,-0.20377,VALID,17.6459,VALID,119,VALID,1.44029,
2006-05-19, 03:07:00,VALID,916.286,VALID,0,VALID,98.5392,VALID,-0.186789,VALID,18.433,VALID,125,VALID,1.81993,
2006-05-19, 03:08:00,VALID,916.286,VALID,0,VALID,98.3408,VALID,-0.135847,VALID,18.2172,VALID,131,VALID,1.7872,
2006-05-19, 03:09:00,VALID,916.281,VALID,0,VALID,98.0814,VALID,-0.101885,VALID,18.3792,VALID,135,VALID,1.82489,
2006-05-19, 03:10:00,VALID,916.261,VALID,0,VALID,97.9161,VALID,-0.0849042,VALID,18.2273,VALID,138,VALID,1.70759,
2006-05-19, 03:11:00,VALID,916.243,VALID,0,VALID,97.6732,VALID,-0.101885,VALID,18.0159,VALID,134,VALID,1.67188,
2006-05-19, 03:12:00,VALID,916.231,VALID,0,VALID,97.4151,VALID,-0.101885,VALID,18.4243,VALID,135,VALID,0.987043,
2006-05-19, 03:13:00,VALID,916.213,VALID,0,VALID,97.3388,VALID,-0.0679233,VALID,18.6015,VALID,132,VALID,1.31426,
2006-05-19, 03:14:00,VALID,916.209,VALID,0,VALID,97.3146,VALID,-0.101885,VALID,18.5739,VALID,128,VALID,1.56086,
2006-05-19, 03:15:00,VALID,916.221,VALID,0,VALID,97.2549,VALID,-0.118866,VALID,18.9335,VALID,116,VALID,1.2316,
2006-05-19, 03:16:00,VALID,916.231,VALID,0,VALID,97.3986,VALID,-0.118866,VALID,17.5382,VALID,112,VALID,1.2885,
2006-05-19, 03:17:00,VALID,916.225,VALID,0,VALID,97.3986,VALID,-0.169808,VALID,18.0938,VALID,116,VALID,1.2753,
2006-05-19, 03:18:00,VALID,916.245,VALID,0,VALID,97.4469,VALID,-0.169808,VALID,18.1219,VALID,119,VALID,1.1351,
2006-05-19, 03:19:00,VALID,916.259,VALID,0,VALID,97.5804,VALID,-0.169808,VALID,17.9644,VALID,125,VALID,1.35469,
2006-05-19, 03:20:00,VALID,916.266,VALID,0,VALID,97.5283,VALID,-0.186789,VALID,17.5682,VALID,120,VALID,1.29649,
2006-05-19, 03:21:00,VALID,916.289,VALID,0,VALID,97.7457,VALID,-0.152827,VALID,18.274,VALID,118,VALID,1.48574,
2006-05-19, 03:22:00,VALID,916.295,VALID,0,VALID,97.6758,VALID,-0.118866,VALID,18.5269,VALID,116,VALID,1.4718,
2006-05-19, 03:23:00,VALID,916.283,VALID,0,VALID,97.6198,VALID,-0.169808,VALID,18.1626,VALID,119,VALID,1.37656,
2006-05-19, 03:24:00,VALID,916.27,VALID,0,VALID,97.6465,VALID,-0.0509425,VALID,18.3227,VALID,117,VALID,1.64662,
2006-05-19, 03:25:00,VALID,916.251,VALID,0,VALID,97.5321,VALID,-0.101885,VALID,18.6509,VALID,112,VALID,1.27706,
2006-05-19, 03:26:00,VALID,916.24,VALID,0,VALID,97.4392,VALID,-0.169808,VALID,17.9646,VALID,106,VALID,1.09499,
2006-05-19, 03:27:00,VALID,916.22,VALID,0,VALID,97.5015,VALID,-0.101885,VALID,18.3882,VALID,122,VALID,1.04334,
2006-05-19, 03:28:00,VALID,916.194,VALID,0,VALID,97.7724,VALID,-0.101885,VALID,18.3897,VALID,116,VALID,1.37363,
2006-05-19, 03:29:00,VALID,916.184,VALID,0,VALID,97.7788,VALID,-0.101885,VALID,16.843,VALID,107,VALID,1.30753,
2006-05-19, 03:30:00,VALID,916.176,VALID,0,VALID,97.6643,VALID,-0.101885,VALID,18.4044,VALID,103,VALID,1.24902,
2006-05-19, 03:31:00,VALID,916.173,VALID,0,VALID,97.7927,VALID,-0.101885,VALID,18.2942,VALID,104,VALID,1.12645,
2006-05-19, 03:32:00,VALID,916.177,VALID,0,VALID,97.8652,VALID,-0.101885,VALID,18.9697,VALID,124,VALID,1.08594,
2006-05-19, 03:33:00,VALID,916.183,VALID,0,VALID,97.7737,VALID,-0.101885,VALID,18.4987,VALID,122,VALID,0.986506,
2006-05-19, 03:34:00,VALID,916.18,VALID,0,VALID,97.7915,VALID,-0.101885,VALID,18.3294,VALID,140,VALID,1.28325,
2006-05-19, 03:35:00,VALID,916.181,VALID,0,VALID,97.8322,VALID,-0.0849042,VALID,19.0738,VALID,143,VALID,1.38717,